Total_Precipitation_Accumulation
0.08 0.08 0.08 0.07 0.05 0.05 0.07 0.10 0.10 0.09 0.07 0.04 0.01 0.01 0.01 0.01 0.01 0.01 0.01 0.01 0.01 0.01
0.15 0.21 0.14 0.10 0.14 0.14 0.12 0.09 0.10 0.10 0.11 0.09 0.07 0.05 0.04 0.03 0.01 0.00 0.01 0.02 0.02 0.01
0.23 0.25 0.24 0.22 0.28 0.29 0.34 0.34 0.30 0.20 0.12 0.07 0.04 0.03 0.02 0.02 0.01 0.00 0.00 0.00 0.00 0.00
0.30 0.31 0.35 0.34 0.40 0.48 0.55 0.48 0.44 0.41 0.35 0.27 0.15 0.07 0.04 0.02 0.02 0.01 0.01 0.00 0.00 0.00
0.49 0.62 0.63 0.56 0.54 0.50 0.44 0.46 0.49 0.49 0.47 0.42 0.34 0.22 0.15 0.11 0.08 0.05 0.04 0.02 0.02 0.01
0.58 0.66 0.76 0.76 0.68 0.57 0.53 0.50 0.44 0.45 0.46 0.44 0.47 0.46 0.39 0.26 0.17 0.13 0.09 0.05 0.03 0.01
0.57 0.56 0.63 0.67 0.58 0.52 0.51 0.46 0.38 0.35 0.30 0.27 0.27 0.23 0.21 0.22 0.19 0.10 0.04 0.03 0.03 0.03
0.55 0.57 0.56 0.53 0.49 0.39 0.26 0.19 0.16 0.16 0.19 0.18 0.14 0.11 0.07 0.04 0.02 0.01 0.00 0.00 0.01 0.00
0.54 0.46 0.41 0.42 0.38 0.33 0.24 0.14 0.11 0.11 0.11 0.09 0.07 0.06 0.04 0.01 0.01 0.00 0.00 0.00 0.00 0.00
0.78 0.80 0.52 0.41 0.40 0.46 0.38 0.29 0.24 0.20 0.20 0.19 0.14 0.07 0.02 0.00 0.00 0.00 0.00 0.00 0.00 0.00
0.92 0.92 0.90 0.64 0.45 0.43 0.52 0.57 0.44 0.38 0.33 0.23 0.18 0.09 0.02 0.01 0.00 0.00 0.00 0.00 0.00 0.00
0.38 0.76 0.88 0.85 0.59 0.39 0.38 0.38 0.38 0.34 0.29 0.24 0.20 0.09 0.04 0.01 0.00 0.00 0.00 0.00 0.00 0.00
0.08 0.13 0.27 0.43 0.47 0.37 0.31 0.34 0.36 0.35 0.25 0.20 0.14 0.08 0.02 0.00 0.00 0.00 0.00 0.00 0.00 0.00
0.08 0.09 0.11 0.21 0.31 0.32 0.23 0.26 0.32 0.30 0.27 0.20 0.10 0.05 0.02 0.00 0.00 0.00 0.00 0.00 0.00 0.00